SCP
-0 -0 -0 -0 -0 -0 -0 -0 0 -0 -0 -0 0 -0 -0 0 0 -0 0 0 0 -0 0 0 0 -0 -0 0 0 0 0 0 0 -0 0 -0 0 0 0 0 -0 -0 0 0
-0 -0 -0 -0 -0 0 0 0 0 0 0 -0 0 0 0 -0 -0 0 -0 -0 -0 0 -0 0 -0 -0 0 0 0 0 -0 0 0 -0 0 -0 0 0 0 0 0 -0 0 -0
-0 -0 -0 -0 -0 -0 0 0 0 0 0 0 0 0 0 -0 -0 -0 -0 0 0 0 0 0 0 -0 -0 -0 -0 0 0 0 -0 0 0 -0 -0 0 0 0 0 0 0 0
-0 -0 -0 -0 -0 -0 0 0 0 0 0 0 0 0 0 0 0 -0 0 0 -0 -0 0 0 -0 -0 -0 -0 -0 0 0 0 0 0 0 0 0 0 0 0 0 0 0 -0
-0 -0 -0 -0 -0 -0 -0 0 0 0 0 0 0 0 0 0 0 0 0 0 0 0 0 0 0 -0 0 0 0 0 0 -0 -0 0 0 0 0 0 0 0 0 0 0 -0
0 -0 -0 -0 -0 -0 0 0 0 0 0 0 0 0 0 0 0 0 0 0 0 0 0 0 0 0 0 -0 0 0 0 0 0 -0 -0 -0 -0 0 0 0 0 0 -0 0
0 0 -0 -0 -0 -0 -0 0 0 0 0 0 0 0 0 0 0 0 0 0 0 0 0 0 0 0 0 0 -0 0 0 0 0 -0 -0 -0 -0 0 0 0 0 0 0 0
0 0 0 0 -0 -0 0 0 0 0 0 0 0 0 0 0 0 0 0 0 0 0 0 0 0 0 -0 0 0 0 0 0 0 -0 -0 -0 -0 -0 0 0 0 -0 -0 0
0 0 0 0 0 -0 0 -0 0 0 0 0 0 0 0 0 0 0 0 0 0 0 0 0 0 0 0 0 0 0 0 0 0 0 -0 -0 -0 -0 0 0 0 0 0 0
-0 0 0 0 0 0 0 -0 0 0 0 0 0 0 0 0 0 0 0 0 0 0 0 0 0 0 0 0 0 0 0 0 0 0 0 -0 -0 0 0 0 0 -0 0 0
-0 0 0 0 0 0 0 0 0 0 0 0 0 0 0 0 0 0 0 0 0 0 0 0 0 0 0 0 0 0 0 0 0 0 0 -0 -0 0 0 0 -0 0 0 0
-0 0 0 0 0 0 0 0 0 0 0 0 0 0 0 0 0 0 0 0 0 0 0 0 0 0 0 0 0 0 0 0 0 0 0 0 0 -0 -0 0 0 0 0 0
-0 0 0 0 0 0 0 0 0 0 0 0 0 0 0 0 0 0 0 0 0 0 0 0 0 0 0 0 0 0 0 0 0 0 0 0 0 0 0 0 0 0 0 0
0 0 0 0 0 0 0 0 0 0 0 0 0 0 0 0 -0 0 0 0 0 0 0 0 0 0 0 0 0 0 0 0 0 0 0 0 0 0 0 0 0 0 0 -0
0 0 0 0 0 0 0 0 0 0 0 0 0 0 0 0 0 0 0 0 0 0 0 0 0 0 0 0 0 0 0 0 -0 0 0 0 0 0 0 0 0 0 0 -0
0 0 0 0 0 0 0 0 0 0 0 0 0 0 0 0 -0 0 0 0 0 0 0 0 0 0 0 0 0 0 0 -0 0 -0 -0 -0 0 0 0 0 0 0 0 0
0 0 0 0 0 0 0 0 0 0 0 0 0 0 0 0 0 0 0 0 0 0 0 0 0 0 0 0 0 0 0 0 0 0 0 0 0 0 0 0 0 0 0 0
0 0 0 0 0 0 0 0 0 0 0 0 0 0 0 0 0 0 0 -0 0 0 0 0 0 0 0 0 0 0 0 0 0 0 0 0 -0 -0 0 0 0 0 0 0
0 0 0 0 0 0 0 0 0 0 0 0 0 0 0 0 0 0 0 0 0 0 0 0 0 0 0 0 0 0 0 0 0 -0 0 0 -0 -0 0 0 0 0 0 0
0 0 0 0 0 0 0 0 0 0 0 0 0 0 0 0 0 0 0 0 0 0 0 0 0 0 0 0 0 0 0 0 0 -0 -0 0 0 -0 -0 -0 0 0 0 0
0 0 0 0 0 0 0 0 0 0 0 0 0 0 0 0 0 0 0 0 0 0 0 0 0 0 0 0 -0 -0 -0 0 0 -0 -0 -0 0 -0 -0 -0 0 0 0 1
0 0 0 0 0 0 0 0 0 0 0 0 0 0 0 0 0 0 0 0 0 0 0 0 0 0 0 0 0 -0 -0 0 0 -0 -0 -0 0 0 -0 -0 0 0 0 0
0 0 0 0 0 0 0 0 0 0 0 0 0 0 0 0 0 0 0 0 0 0 0 0 0 0 0 0 0 0 0 0 0 -0 -0 0 -0 -0 0 -0 -0 0 0 0
0 0 0 0 0 0 0 -0 0 0 0 0 0 0 0 0 0 0 0 0 0 0 0 0 0 0 0 0 0 0 0 0 0 -0 -0 0 0 0 0 0 0 0 0 0
0 0 0 0 0 -0 0 0 0 0 0 -0 0 0 0 0 0 0 0 0 0 0 0 -0 -0 0 0 0 0 0 -0 0 0 0 -0 0 0 0 0 -0 0 0 -0 0
0 0 0 0 0 0 0 0 0 0 0 0 0 0 0 0 0 0 0 0 0 0 -0 -0 0 -0 0 0 0 0 0 0 0 0 0 0 0 0 0 0 0 0 0 0
0 0 0 0 0 0 0 0 0 0 0 0 0 0 0 0 0 0 0 0 0 -0 -0 -0 -0 -0 0 0 0 -0 -0 0 0 0 0 -0 0 0 0 0 0 0 0 0
Wind_Speed_500mb
69 69 68 69 70 50 24 9 6 22 19 11 13 13 15 25 21 22 13 8 11 14 19 15 11 6 10 22 14 6 6 6 9 16 19 15 14 14 13 10 9 4 9 11
69 67 66 64 56 60 49 25 12 17 18 6 10 22 24 38 31 11 9 16 18 24 16 13 17 20 16 22 9 9 8 8 11 22 17 8 3 8 9 17 11 9 11 12
71 70 67 62 55 43 34 17 8 15 10 14 26 21 15 27 51 30 46 15 14 14 17 21 17 30 26 43 3 21 12 7 11 11 17 11 8 10 16 18 10 16 8 32
69 73 73 65 57 45 15 22 12 19 11 15 29 27 18 25 25 45 42 21 42 32 16 18 24 28 32 49 15 10 6 9 13 22 20 18 20 10 13 10 15 14 32 40
67 69 72 72 64 43 46 18 18 25 23 35 26 24 25 31 34 26 25 31 39 32 14 21 26 19 23 13 29 27 22 11 6 15 21 21 25 12 8 3 6 3 11 16
64 66 66 66 66 59 29 47 25 13 22 21 20 21 24 27 36 24 45 33 26 24 34 49 45 40 32 38 30 35 27 20 9 11 28 17 13 12 15 7 8 3 5 15
61 61 61 58 54 48 40 46 20 14 10 16 20 30 34 30 30 18 36 40 14 45 57 53 51 41 43 43 37 34 28 26 16 15 14 11 18 23 10 17 18 15 16 22
57 58 57 53 47 39 31 42 29 13 9 33 28 39 29 35 40 31 34 38 49 47 39 11 12 9 12 20 26 26 25 18 9 12 18 17 19 20 8 8 8 10 7 2
53 54 55 50 45 37 17 33 35 13 15 7 35 32 31 13 14 15 27 54 49 35 8 6 7 7 10 11 13 13 16 20 18 18 21 30 22 16 21 9 11 9 7 9
48 51 50 47 44 36 23 16 33 20 14 14 37 16 16 22 23 13 23 39 23 27 5 6 9 16 16 11 13 18 15 11 11 7 5 14 13 14 22 12 15 29 16 12
45 48 49 45 41 38 29 14 17 25 13 48 12 22 36 38 25 8 37 22 31 10 14 7 8 7 9 11 14 16 13 11 14 6 3 11 10 16 13 29 36 22 20 19
42 45 45 42 40 36 33 28 18 15 32 38 52 27 20 25 33 34 11 24 27 11 7 9 8 16 9 14 9 18 4 12 9 14 11 41 71 34 58 80 76 41 21 15
39 41 42 41 37 34 37 38 27 30 20 44 8 20 20 7 15 14 17 18 13 19 23 14 6 8 9 9 10 20 16 38 12 29 28 47 35 72 72 71 73 59 20 13
35 37 38 38 33 29 32 36 12 19 25 12 17 27 28 26 29 27 30 40 42 42 35 24 8 11 17 12 18 24 22 36 23 30 23 64 69 98 85 85 59 72 60 69
32 35 36 36 31 27 27 10 11 16 17 11 34 48 8 6 15 25 24 31 36 30 26 16 16 33 25 34 26 23 29 22 21 27 49 32 70 103 98 89 51 55 84 24
31 33 33 31 27 25 18 3 4 12 12 15 9 29 10 8 13 16 24 29 35 38 34 18 29 37 32 12 18 35 49 66 65 57 63 66 76 89 78 77 69 62 96 40
30 31 29 25 26 22 12 9 7 17 16 7 14 16 18 17 24 29 21 26 34 40 27 34 42 38 41 21 30 58 46 64 80 81 77 74 78 78 83 77 79 86 58 49
27 27 24 23 28 18 6 4 4 7 3 5 7 11 16 22 19 17 35 34 33 20 23 24 33 31 25 21 32 42 50 57 63 65 60 72 79 80 79 80 85 95 91 39
21 22 22 21 6 1 11 16 17 5 7 6 8 7 7 23 23 19 19 11 7 16 10 15 13 9 7 15 38 53 61 47 54 62 59 60 65 70 59 59 78 86 93 91
18 15 3 6 8 2 8 4 4 8 8 9 10 20 11 29 19 7 11 8 6 6 2 17 7 4 10 24 42 45 60 62 59 52 56 65 64 67 59 48 66 81 94 92
2 2 1 8 9 2 5 7 12 12 8 12 16 22 16 16 2 3 0 6 7 7 3 8 4 5 6 18 27 50 68 55 57 44 51 61 60 62 51 57 65 73 86 79
6 9 11 7 9 9 7 7 10 11 8 18 12 21 30 14 4 6 7 4 5 12 21 6 6 6 22 21 38 58 74 55 55 46 50 60 51 55 58 54 51 61 67 73
8 6 6 8 10 5 11 10 8 7 10 15 19 15 23 13 5 4 3 8 10 22 6 6 6 7 30 36 46 73 81 63 56 50 43 49 54 57 67 66 63 76 53 43
7 8 8 10 12 12 11 15 9 19 20 21 29 26 10 10 9 5 7 7 7 8 7 9 6 34 35 40 54 54 73 69 73 60 45 43 48 53 73 72 79 87 60 60
10 11 10 15 30 29 31 47 38 25 25 31 22 20 15 5 6 7 6 8 10 9 6 7 39 39 37 41 54 64 76 80 79 68 48 53 55 49 64 55 76 58 41 59
10 16 15 31 28 37 38 26 26 34 23 20 10 2 5 7 6 12 14 8 8 6 12 54 47 54 46 49 65 76 78 81 78 73 56 59 56 55 45 52 53 43 50 65
11 16 33 50 46 38 38 23 16 10 9 1 3 5 11 4 8 9 7 6 9 38 45 56 68 72 66 67 72 76 84 84 81 78 63 55 52 38 41 46 44 47 54 45
Wind_Direction_500mb
5 5 6 7 355 8 349 5 290 179 176 210 234 255 268 303 300 330 335 279 292 309 337 334 328 294 61 89 83 5 308 265 311 254 233 224 168 156 139 130 211 173 131 262
5 5 6 8 9 355 2 340 278 183 186 253 272 290 313 334 343 7 303 320 343 344 339 348 339 337 327 152 156 124 354 323 345 334 346 51 135 211 137 95 111 202 137 274
6 5 6 9 8 2 358 360 330 9 247 342 351 339 344 348 339 332 353 332 319 335 335 322 335 6 346 358 318 135 116 262 237 234 260 297 331 159 158 157 134 169 178 276
6 5 4 9 12 6 21 21 37 9 328 337 317 316 331 321 6 358 8 346 12 5 4 4 9 0 338 348 76 344 164 250 277 289 303 325 314 170 162 190 178 172 193 222
7 8 6 5 12 18 39 35 1 337 293 309 319 23 17 3 354 352 357 9 355 346 334 20 345 2 342 297 335 335 325 290 300 301 286 281 279 283 101 287 283 148 63 202
5 7 10 11 13 23 55 4 352 308 291 324 2 8 353 354 17 333 351 337 327 331 321 325 313 311 301 288 287 295 302 314 359 279 297 336 331 287 140 197 280 131 215 242
360 5 8 12 18 26 37 4 12 328 311 346 356 351 356 347 340 304 314 320 343 345 331 322 314 303 296 276 277 268 278 287 292 283 324 304 253 281 228 187 198 192 262 195
355 360 5 9 14 20 29 18 21 354 307 327 344 341 344 334 353 347 320 357 355 347 342 335 330 321 285 265 260 258 262 272 266 269 281 274 292 280 99 96 304 149 110 127
351 356 360 2 6 11 35 37 4 11 315 50 359 342 5 5 335 317 333 340 341 342 325 336 247 261 350 285 300 289 306 255 254 261 260 267 272 297 142 97 309 235 98 286
348 349 354 359 359 6 9 25 3 8 309 277 356 359 326 322 345 302 314 350 330 316 233 261 260 258 291 267 282 297 303 311 294 294 306 292 260 241 140 99 234 259 256 256
343 344 346 354 358 355 5 48 8 3 306 294 285 313 315 308 310 315 331 339 15 317 2 338 348 326 3 298 341 291 278 277 287 292 245 304 34 21 27 331 324 212 189 236
336 338 339 347 352 349 346 341 351 358 300 273 303 310 295 271 266 275 277 294 324 303 1 8 339 315 285 329 309 319 56 70 286 17 300 350 345 25 22 12 353 267 209 191
329 332 333 337 345 343 337 335 348 353 320 316 291 49 33 214 238 250 242 281 276 292 307 333 292 265 341 307 313 320 320 9 319 339 344 336 344 359 3 357 357 348 315 163
323 327 327 330 338 337 329 333 33 18 321 285 288 284 288 279 246 253 255 268 278 279 282 277 264 273 254 269 295 292 298 323 306 301 330 339 336 338 335 338 330 347 332 325
321 322 322 324 331 333 332 350 70 354 328 298 298 320 320 293 273 276 270 267 272 268 256 252 260 270 281 279 279 275 288 287 297 294 314 321 313 314 316 324 317 329 331 309
318 316 316 319 323 334 345 40 181 252 356 334 312 308 319 297 261 276 268 267 271 262 248 241 240 254 256 269 270 284 283 286 287 289 301 310 305 305 316 320 324 314 315 299
314 309 307 308 310 314 295 249 246 331 315 307 301 294 288 291 264 291 311 326 335 322 298 251 256 248 234 250 262 277 279 282 288 291 299 297 299 305 318 319 319 324 310 299
307 295 293 301 303 318 357 275 290 300 60 286 282 277 278 28 25 355 343 325 307 276 265 265 266 275 276 266 281 324 328 296 283 292 286 277 287 292 307 314 319 313 314 310
287 283 297 294 284 129 244 269 288 218 189 261 234 273 309 3 350 354 345 323 296 284 251 247 260 213 212 12 355 344 329 316 315 330 308 304 284 286 290 306 309 306 308 309
266 297 289 231 212 288 293 281 218 195 207 226 255 258 268 291 344 53 354 338 292 294 330 299 236 93 155 6 356 344 324 309 321 328 319 319 308 303 283 290 306 305 309 310
254 304 5 118 1 263 232 244 205 168 221 219 240 242 255 301 325 105 311 318 296 281 346 321 313 268 211 332 339 340 334 309 306 300 285 295 297 309 297 267 298 310 314 305
207 276 306 218 240 221 231 223 211 194 230 191 226 239 224 217 195 167 156 246 257 257 342 282 248 206 236 291 323 334 337 310 300 295 294 292 290 296 291 282 290 298 293 294
243 252 234 214 219 232 223 218 206 217 191 208 218 258 282 127 163 144 186 242 241 310 240 249 270 241 257 284 308 325 331 316 307 298 293 290 285 272 282 291 281 307 287 228
212 226 247 221 203 223 196 220 216 212 215 238 255 272 278 154 155 100 238 237 246 254 240 232 290 312 303 293 317 312 314 318 317 310 296 284 276 265 275 283 274 291 272 237
223 209 237 230 241 257 240 225 237 240 245 262 268 273 280 143 138 193 249 236 238 229 273 297 314 325 317 301 315 316 322 315 317 311 295 279 270 265 264 272 274 272 211 193
229 232 251 265 272 262 267 259 209 269 234 241 227 320 278 208 194 200 214 238 247 293 317 314 325 336 326 315 324 323 319 314 313 307 295 281 272 267 253 265 265 224 197 188
229 241 238 254 279 277 279 284 275 296 285 218 109 224 237 244 224 220 216 226 236 288 314 321 318 323 323 325 325 323 316 312 310 303 295 282 270 244 245 253 229 209 203 198
Wind_Speed_850mb
69 69 68 69 70 50 24 9 6 22 19 11 13 13 15 25 21 22 13 8 11 14 19 15 11 6 10 22 14 6 6 6 9 16 19 15 14 14 13 10 9 4 9 11
69 67 66 64 56 60 49 25 12 17 18 6 10 22 24 38 31 11 9 16 18 24 16 13 17 20 16 22 9 9 8 8 11 22 17 8 3 8 9 17 11 9 11 12
71 70 67 62 55 43 34 17 8 15 10 14 26 21 15 27 51 30 46 15 14 14 17 21 17 30 26 43 3 21 12 7 11 11 17 11 8 10 16 18 10 16 8 32
69 73 73 65 57 45 15 22 12 19 11 15 29 27 18 25 25 45 42 21 42 32 16 18 24 28 32 49 15 10 6 9 13 22 20 18 20 10 13 10 15 14 32 40
67 69 72 72 64 43 46 18 18 25 23 35 26 24 25 31 34 26 25 31 39 32 14 21 26 19 23 13 29 27 22 11 6 15 21 21 25 12 8 3 6 3 11 16
64 66 66 66 66 59 29 47 25 13 22 21 20 21 24 27 36 24 45 33 26 24 34 49 45 40 32 38 30 35 27 20 9 11 28 17 13 12 15 7 8 3 5 15
61 61 61 58 54 48 40 46 20 14 10 16 20 30 34 30 30 18 36 40 14 45 57 53 51 41 43 43 37 34 28 26 16 15 14 11 18 23 10 17 18 15 16 22
57 58 57 53 47 39 31 42 29 13 9 33 28 39 29 35 40 31 34 38 49 47 39 11 12 9 12 20 26 26 25 18 9 12 18 17 19 20 8 8 8 10 7 2
53 54 55 50 45 37 17 33 35 13 15 7 35 32 31 13 14 15 27 54 49 35 8 6 7 7 10 11 13 13 16 20 18 18 21 30 22 16 21 9 11 9 7 9
48 51 50 47 44 36 23 16 33 20 14 14 37 16 16 22 23 13 23 39 23 27 5 6 9 16 16 11 13 18 15 11 11 7 5 14 13 14 22 12 15 29 16 12
45 48 49 45 41 38 29 14 17 25 13 48 12 22 36 38 25 8 37 22 31 10 14 7 8 7 9 11 14 16 13 11 14 6 3 11 10 16 13 29 36 22 20 19
42 45 45 42 40 36 33 28 18 15 32 38 52 27 20 25 33 34 11 24 27 11 7 9 8 16 9 14 9 18 4 12 9 14 11 41 71 34 58 80 76 41 21 15
39 41 42 41 37 34 37 38 27 30 20 44 8 20 20 7 15 14 17 18 13 19 23 14 6 8 9 9 10 20 16 38 12 29 28 47 35 72 72 71 73 59 20 13
35 37 38 38 33 29 32 36 12 19 25 12 17 27 28 26 29 27 30 40 42 42 35 24 8 11 17 12 18 24 22 36 23 30 23 64 69 98 85 85 59 72 60 69
32 35 36 36 31 27 27 10 11 16 17 11 34 48 8 6 15 25 24 31 36 30 26 16 16 33 25 34 26 23 29 22 21 27 49 32 70 103 98 89 51 55 84 24
31 33 33 31 27 25 18 3 4 12 12 15 9 29 10 8 13 16 24 29 35 38 34 18 29 37 32 12 18 35 49 66 65 57 63 66 76 89 78 77 69 62 96 40
30 31 29 25 26 22 12 9 7 17 16 7 14 16 18 17 24 29 21 26 34 40 27 34 42 38 41 21 30 58 46 64 80 81 77 74 78 78 83 77 79 86 58 49
27 27 24 23 28 18 6 4 4 7 3 5 7 11 16 22 19 17 35 34 33 20 23 24 33 31 25 21 32 42 50 57 63 65 60 72 79 80 79 80 85 95 91 39
21 22 22 21 6 1 11 16 17 5 7 6 8 7 7 23 23 19 19 11 7 16 10 15 13 9 7 15 38 53 61 47 54 62 59 60 65 70 59 59 78 86 93 91
18 15 3 6 8 2 8 4 4 8 8 9 10 20 11 29 19 7 11 8 6 6 2 17 7 4 10 24 42 45 60 62 59 52 56 65 64 67 59 48 66 81 94 92
2 2 1 8 9 2 5 7 12 12 8 12 16 22 16 16 2 3 0 6 7 7 3 8 4 5 6 18 27 50 68 55 57 44 51 61 60 62 51 57 65 73 86 79
6 9 11 7 9 9 7 7 10 11 8 18 12 21 30 14 4 6 7 4 5 12 21 6 6 6 22 21 38 58 74 55 55 46 50 60 51 55 58 54 51 61 67 73
8 6 6 8 10 5 11 10 8 7 10 15 19 15 23 13 5 4 3 8 10 22 6 6 6 7 30 36 46 73 81 63 56 50 43 49 54 57 67 66 63 76 53 43
7 8 8 10 12 12 11 15 9 19 20 21 29 26 10 10 9 5 7 7 7 8 7 9 6 34 35 40 54 54 73 69 73 60 45 43 48 53 73 72 79 87 60 60
10 11 10 15 30 29 31 47 38 25 25 31 22 20 15 5 6 7 6 8 10 9 6 7 39 39 37 41 54 64 76 80 79 68 48 53 55 49 64 55 76 58 41 59
10 16 15 31 28 37 38 26 26 34 23 20 10 2 5 7 6 12 14 8 8 6 12 54 47 54 46 49 65 76 78 81 78 73 56 59 56 55 45 52 53 43 50 65
11 16 33 50 46 38 38 23 16 10 9 1 3 5 11 4 8 9 7 6 9 38 45 56 68 72 66 67 72 76 84 84 81 78 63 55 52 38 41 46 44 47 54 45
Wind_Direction_850mb
5 5 6 7 355 8 349 5 290 179 176 210 234 255 268 303 300 330 335 279 292 309 337 334 328 294 61 89 83 5 308 265 311 254 233 224 168 156 139 130 211 173 131 262
5 5 6 8 9 355 2 340 278 183 186 253 272 290 313 334 343 7 303 320 343 344 339 348 339 337 327 152 156 124 354 323 345 334 346 51 135 211 137 95 111 202 137 274
6 5 6 9 8 2 358 360 330 9 247 342 351 339 344 348 339 332 353 332 319 335 335 322 335 6 346 358 318 135 116 262 237 234 260 297 331 159 158 157 134 169 178 276
6 5 4 9 12 6 21 21 37 9 328 337 317 316 331 321 6 358 8 346 12 5 4 4 9 0 338 348 76 344 164 250 277 289 303 325 314 170 162 190 178 172 193 222
7 8 6 5 12 18 39 35 1 337 293 309 319 23 17 3 354 352 357 9 355 346 334 20 345 2 342 297 335 335 325 290 300 301 286 281 279 283 101 287 283 148 63 202
5 7 10 11 13 23 55 4 352 308 291 324 2 8 353 354 17 333 351 337 327 331 321 325 313 311 301 288 287 295 302 314 359 279 297 336 331 287 140 197 280 131 215 242
360 5 8 12 18 26 37 4 12 328 311 346 356 351 356 347 340 304 314 320 343 345 331 322 314 303 296 276 277 268 278 287 292 283 324 304 253 281 228 187 198 192 262 195
355 360 5 9 14 20 29 18 21 354 307 327 344 341 344 334 353 347 320 357 355 347 342 335 330 321 285 265 260 258 262 272 266 269 281 274 292 280 99 96 304 149 110 127
351 356 360 2 6 11 35 37 4 11 315 50 359 342 5 5 335 317 333 340 341 342 325 336 247 261 350 285 300 289 306 255 254 261 260 267 272 297 142 97 309 235 98 286
348 349 354 359 359 6 9 25 3 8 309 277 356 359 326 322 345 302 314 350 330 316 233 261 260 258 291 267 282 297 303 311 294 294 306 292 260 241 140 99 234 259 256 256
343 344 346 354 358 355 5 48 8 3 306 294 285 313 315 308 310 315 331 339 15 317 2 338 348 326 3 298 341 291 278 277 287 292 245 304 34 21 27 331 324 212 189 236
336 338 339 347 352 349 346 341 351 358 300 273 303 310 295 271 266 275 277 294 324 303 1 8 339 315 285 329 309 319 56 70 286 17 300 350 345 25 22 12 353 267 209 191
329 332 333 337 345 343 337 335 348 353 320 316 291 49 33 214 238 250 242 281 276 292 307 333 292 265 341 307 313 320 320 9 319 339 344 336 344 359 3 357 357 348 315 163
323 327 327 330 338 337 329 333 33 18 321 285 288 284 288 279 246 253 255 268 278 279 282 277 264 273 254 269 295 292 298 323 306 301 330 339 336 338 335 338 330 347 332 325
321 322 322 324 331 333 332 350 70 354 328 298 298 320 320 293 273 276 270 267 272 268 256 252 260 270 281 279 279 275 288 287 297 294 314 321 313 314 316 324 317 329 331 309
318 316 316 319 323 334 345 40 181 252 356 334 312 308 319 297 261 276 268 267 271 262 248 241 240 254 256 269 270 284 283 286 287 289 301 310 305 305 316 320 324 314 315 299
314 309 307 308 310 314 295 249 246 331 315 307 301 294 288 291 264 291 311 326 335 322 298 251 256 248 234 250 262 277 279 282 288 291 299 297 299 305 318 319 319 324 310 299
307 295 293 301 303 318 357 275 290 300 60 286 282 277 278 28 25 355 343 325 307 276 265 265 266 275 276 266 281 324 328 296 283 292 286 277 287 292 307 314 319 313 314 310
287 283 297 294 284 129 244 269 288 218 189 261 234 273 309 3 350 354 345 323 296 284 251 247 260 213 212 12 355 344 329 316 315 330 308 304 284 286 290 306 309 306 308 309
266 297 289 231 212 288 293 281 218 195 207 226 255 258 268 291 344 53 354 338 292 294 330 299 236 93 155 6 356 344 324 309 321 328 319 319 308 303 283 290 306 305 309 310
254 304 5 118 1 263 232 244 205 168 221 219 240 242 255 301 325 105 311 318 296 281 346 321 313 268 211 332 339 340 334 309 306 300 285 295 297 309 297 267 298 310 314 305
207 276 306 218 240 221 231 223 211 194 230 191 226 239 224 217 195 167 156 246 257 257 342 282 248 206 236 291 323 334 337 310 300 295 294 292 290 296 291 282 290 298 293 294
243 252 234 214 219 232 223 218 206 217 191 208 218 258 282 127 163 144 186 242 241 310 240 249 270 241 257 284 308 325 331 316 307 298 293 290 285 272 282 291 281 307 287 228
212 226 247 221 203 223 196 220 216 212 215 238 255 272 278 154 155 100 238 237 246 254 240 232 290 312 303 293 317 312 314 318 317 310 296 284 276 265 275 283 274 291 272 237
223 209 237 230 241 257 240 225 237 240 245 262 268 273 280 143 138 193 249 236 238 229 273 297 314 325 317 301 315 316 322 315 317 311 295 279 270 265 264 272 274 272 211 193
229 232 251 265 272 262 267 259 209 269 234 241 227 320 278 208 194 200 214 238 247 293 317 314 325 336 326 315 324 323 319 314 313 307 295 281 272 267 253 265 265 224 197 188
229 241 238 254 279 277 279 284 275 296 285 218 109 224 237 244 224 220 216 226 236 288 314 321 318 323 323 325 325 323 316 312 310 303 295 282 270 244 245 253 229 209 203 198